Weather in Volkovo

Russia / Amur Oblast     50°14′55″N   127°46′29″E
temp.,
°C
wind,
m/s
gust,
m/s
humid.,
%
clouds,
%
prec.,
mm/h
press.,
hPa
HPBL,
m
9 december, thu
thu900:00−9s410925 0.0 1023137
03:00−9s510917 0.0 1021159
06:00−10s410906 0.0 1020137
09:00−8s5118874 0.0 1019183
12:00−4s5988100 0.0 1018286
15:00−2s4889100 0.0 1017230
18:00−3ssw3789100 0.0 1018182
21:00−4ssw2598100 1.7 1019208
10 december, fri
fri1000:00−4w2398100 2.4 1020125
03:00−6nnw4891100 3.2 1021302
06:00−8nnw4988100 0.0 1023352
09:00−10nnw41089100 0.0 1025299
12:00−8nnw4888100 0.0 1025347
15:00−9nnw3786100 0.0 1026210
18:00−16nnw229414 0.0 102814
21:00−18nw2296100 0.0 102810
11 december, sat
sat1100:00−16wnw1195100 0.0 10289
03:00−16s119598 0.0 102811
06:00−19sse2299100 0.0 102714
09:00−15s2494100 0.0 102675
12:00−10s3486100 0.0 1024160
15:00−8sse2396100 0.3 1022155
18:00−7s2496100 0.7 1021129
21:00−8w2497100 1.3 1019106
12 december, sun
sun1200:00−9w2397100 0.3 101860
03:00−10nw4795100 0.7 1017298
06:00−12nw51094100 0.3 1016426
09:00−13nw61193100 0.5 1017533
12:00−12nnw71190100 0.2 1017730
15:00−12nw61088100 0.3 1016827
18:00−13nw61286100 0.1 1017726
21:00−14nw6138286 0.1 1018642
13 december, mon
mon1300:00−17nw511807 0.0 1018293
03:00−20wnw37863 0.0 101877
06:00−23w22885 0.0 101823
09:00−26wsw229110 0.0 101810
12:00−16sw1277100 0.0 1017103
15:00−14se238894 0.0 101584
18:00−17s239295 0.0 101645
21:00−17ssw2296100 0.0 101639